Home > Weather > New Haven > Past weeks

Flag for USA Weather for the Past 2 Weeks in New Haven, Connecticut, USA

Now
45 °F

Fog.


Feels Like: 41 °F
Forecast: 41 / 53 °F
Wind: 7 mph from Northeast

Location: Tweed-New Haven Airport

Current Time: May 2, 2016 at 8:44:31 AM

Latest Report: May 2, 2016 at 7:53 AM


Visibility: 4 mi

Pressure: 30.01 "Hg

Humidity: 97%

Dew Point: 44 °F

Location of New HavenLocation

Historic Weather in New Haven — Graph

°F

New Haven Temperature Yesterday

Maximum temperature yesterday: 49 °F (at 12:53 PM)
Minimum temperature yesterday: 41 °F (at 7:03 PM)
Average temperature yesterday: 46 °F

High & Low Weather Summary for the Past Weeks

 TemperatureHumidityPressure
High75 °F (Apr 18, 12:53 PM)100% (Apr 21, 6:53 AM)30.45 "Hg (Apr 21, 6:53 AM)
Low37 °F (Apr 27, 5:53 AM)17% (Apr 20, 11:53 AM)29.70 "Hg (Apr 26, 11:53 AM)
Average52 °F63%30.04 "Hg
* Reported Apr 17 6:53 AM — May 2 6:55 AM, New Haven, Weather by CustomWeather, © 2016

Note: Actual official high and low records may vary slightly from our data, if they occured in-between our weather recording intervals... More about our weather records

Advertising

New Haven Weather History for the Previous 24 Hours

Scroll right to see more
 ConditionsComfort  
Time TempWeatherWind HumidityBarometerVisibility
6:55 AM
Mon, May 2
44 °FFog.7 mph96%30.01 "Hg2 mi
5:53 AM43 °FFog.9 mph97%30.01 "Hg1 mi
4:53 AM43 °FFog.9 mph97%30.01 "Hg6 mi
4:00 AM43 °FMostly cloudy.8 mph97%30.04 "Hg10 mi
2:59 AM43 °FMostly cloudy.9 mph97%30.03 "Hg10 mi
1:53 AM43 °FLow clouds.6 mph97%30.05 "Hg9 mi
12:53 AM43 °FFog.5 mph97%30.08 "Hg5 mi
11:53 PM
Sun, May 1
43 °FFog.8 mph93%30.09 "Hg4 mi
10:53 PM43 °FLow clouds.7 mph93%30.10 "Hg10 mi
9:53 PM43 °FMostly cloudy.6 mph93%30.13 "Hg10 mi
9:00 PM42 °FMostly cloudy.6 mph92%30.14 "Hg10 mi
7:53 PM41 °FMostly cloudy.9 mph93%30.14 "Hg9 mi
7:03 PM41 °FLight rain. Fog.9 mph93%30.15 "Hg2 mi
5:53 PM43 °FFog.12 mph86%30.17 "Hg5 mi
4:53 PM44 °FLight rain. Overcast.8 mph79%30.17 "Hg6 mi
3:53 PM47 °FMostly cloudy.9 mph71%30.17 "Hg10 mi
2:53 PM47 °FMore clouds than sun.9 mph69%30.19 "Hg7 mi
1:53 PM47 °FLight rain. Fog.8 mph77%30.20 "Hg6 mi
12:53 PM49 °FMore clouds than sun.10 mph80%30.20 "Hg10 mi
11:53 AM48 °FCloudy.8 mph83%30.22 "Hg10 mi
10:53 AM48 °FOvercast.7 mph83%30.24 "Hg10 mi
9:53 AM48 °FLight rain. Overcast.7 mph74%30.24 "Hg10 mi
8:53 AM48 °FOvercast.8 mph71%30.24 "Hg10 mi
Weather by CustomWeather, © 2016

See weather overviewHow to use our weather pages